| time (UTC) | temp F | wind direction | speed MPH | gust MPH | rain 1hr in | rain 24hr in | rain mn in | humidity % | barometer mb |
| 20260503201035 | 51 | 267 | 2.0 | 6.0 | 0.00 | 0.00 | 0.00 | 47 | 1019.6 |
| 20260503200536 | 50 | 331 | 1.0 | 6.0 | 0.00 | 0.00 | 0.00 | 44 | 1019.7 |
| 20260503200053 | 51 | 274 | 2.0 | 6.0 | 0.00 | 0.00 | 0.00 | 44 | 1019.7 |
| 20260503195535 | 50 | 264 | 1.0 | 6.0 | 0.00 | 0.00 | 0.00 | 46 | 1019.8 |
| 20260503195035 | 50 | 40 | 3.0 | 6.0 | 0.00 | 0.00 | 0.00 | 45 | 1019.9 |
| 20260503194554 | 51 | 0 | 3.0 | 6.0 | 0.00 | 0.00 | 0.00 | 43 | 1019.9 |
| 20260503194035 | 52 | 277 | 3.0 | 6.0 | 0.00 | 0.00 | 0.00 | 41 | 1020.1 |
| 20260503193536 | 52 | 327 | 1.0 | 5.0 | 0.00 | 0.00 | 0.00 | 45 | 1019.9 |
| 20260503193052 | 52 | 352 | 1.0 | 5.0 | 0.00 | 0.00 | 0.00 | 46 | 1020.0 |
| 20260503192536 | 52 | 0 | 1.0 | 4.0 | 0.00 | 0.00 | 0.00 | 44 | 1020.0 |
| 20260503192035 | 52 | 290 | 2.0 | 4.0 | 0.00 | 0.00 | 0.00 | 43 | 1020.0 |
| 20260503191546 | 53 | 294 | 1.0 | 4.0 | 0.00 | 0.00 | 0.00 | 44 | 1020.1 |
| 20260503191038 | 52 | 46 | 1.0 | 4.0 | 0.00 | 0.00 | 0.00 | 47 | 1020.1 |
| 20260503190536 | 52 | 323 | 0.0 | 6.0 | 0.00 | 0.00 | 0.00 | 47 | 1020.2 |
| 20260503190045 | 51 | 355 | 1.0 | 6.0 | 0.00 | 0.00 | 0.00 | 43 | 1020.1 |
| 20260503185535 | 52 | 0 | 1.0 | 6.0 | 0.00 | 0.00 | 0.00 | 47 | 1020.1 |
| 20260503185035 | 51 | 0 | 2.0 | 5.0 | 0.00 | 0.00 | 0.00 | 46 | 1020.1 |
| 20260503184544 | 51 | 273 | 0.0 | 4.0 | 0.00 | 0.00 | 0.00 | 48 | 1020.1 |
| 20260503184035 | 51 | 261 | 1.0 | 4.0 | 0.00 | 0.00 | 0.00 | 49 | 1020.1 |
| 20260503183534 | 51 | 238 | 1.0 | 3.0 | 0.00 | 0.00 | 0.00 | 45 | 1020.1 |
| 20260503183050 | 50 | 40 | 1.0 | 3.0 | 0.00 | 0.00 | 0.00 | 48 | 1020.1 |
| 20260503182536 | 50 | 332 | 1.0 | 4.0 | 0.00 | 0.00 | 0.00 | 48 | 1020.1 |
| 20260503182036 | 50 | 0 | 1.0 | 4.0 | 0.00 | 0.00 | 0.00 | 48 | 1020.1 |
| 20260503181559 | 50 | 0 | 0.0 | 3.0 | 0.00 | 0.00 | 0.00 | 48 | 1020.1 |
| 20260503181035 | 50 | 0 | 1.0 | 4.0 | 0.00 | 0.00 | 0.00 | 50 | 1020.1 |
| 20260503180537 | 50 | 288 | 1.0 | 5.0 | 0.00 | 0.00 | 0.00 | 48 | 1020.2 |
| 20260503180048 | 50 | 300 | 1.0 | 6.0 | 0.00 | 0.00 | 0.00 | 51 | 1020.2 |
| 20260503175535 | 50 | 317 | 1.0 | 6.0 | 0.00 | 0.00 | 0.00 | 49 | 1020.2 |
| 20260503175036 | 50 | 239 | 1.0 | 5.0 | 0.00 | 0.00 | 0.00 | 53 | 1020.1 |
| 20260503174544 | 49 | 217 | 1.0 | 5.0 | 0.00 | 0.00 | 0.00 | 52 | 1020.2 |
| 20260503174035 | 49 | 291 | 0.0 | 3.0 | 0.00 | 0.00 | 0.00 | 54 | 1020.2 |
| 20260503173535 | 49 | 263 | 1.0 | 4.0 | 0.00 | 0.00 | 0.00 | 54 | 1020.3 |
| 20260503173052 | 49 | 151 | 1.0 | 4.0 | 0.00 | 0.00 | 0.00 | 52 | 1020.3 |
| 20260503172536 | 48 | 0 | 2.0 | 4.0 | 0.00 | 0.00 | 0.00 | 52 | 1020.3 |
| 20260503172034 | 48 | 290 | 0.0 | 3.0 | 0.00 | 0.00 | 0.00 | 52 | 1020.3 |
| 20260503171548 | 48 | 251 | 0.0 | 3.0 | 0.00 | 0.00 | 0.00 | 55 | 1020.2 |
| 20260503171036 | 48 | 205 | 1.0 | 3.0 | 0.00 | 0.00 | 0.00 | 52 | 1020.2 |
| 20260503170535 | 48 | 229 | 0.0 | 2.0 | 0.00 | 0.00 | 0.00 | 53 | 1020.2 |
| 20260503150535 | 37 | 0 | 0.0 | 2.0 | 0.00 | 0.00 | 0.00 | 81 | 1020.1 |
| 20260503131038 | 30 | 294 | 0.0 | 1.0 | 0.00 | 0.00 | 0.00 | 88 | 1019.3 |
| 20260503130535 | 30 | 0 | 0.0 | 3.0 | 0.00 | 0.00 | 0.00 | 88 | 1019.2 |
| 20260503110536 | 29 | 0 | 0.0 | 2.0 | 0.00 | 0.00 | 0.00 | 89 | 1017.8 |
| 20260503081545 | 29 | 0 | 0.0 | 4.0 | 0.00 | 0.00 | 0.00 | 86 | 1016.6 |
| 20260503081035 | 29 | 0 | 0.0 | 4.0 | 0.00 | 0.00 | 0.00 | 86 | 1016.6 |
| 20260503080536 | 29 | 57 | 0.0 | 4.0 | 0.00 | 0.00 | 0.00 | 86 | 1016.6 |
| 20260503072535 | 30 | 229 | 2.0 | 6.0 | 0.00 | 0.00 | 0.00 | 84 | 1016.2 |
| 20260503072035 | 30 | 182 | 1.0 | 7.0 | 0.00 | 0.00 | 0.00 | 84 | 1016.2 |
| 20260503071558 | 30 | 267 | 1.0 | 7.0 | 0.00 | 0.00 | 0.00 | 84 | 1016.3 |
| 20260503071035 | 30 | 276 | 1.0 | 5.0 | 0.00 | 0.00 | 0.00 | 84 | 1016.2 |
| 20260503070535 | 30 | 0 | 0.0 | 4.0 | 0.00 | 0.00 | 0.00 | 83 | 1016.2 |
| 20260503060103 | 31 | 276 | 2.0 | 6.0 | 0.00 | 0.00 | 0.00 | 81 | 1016.4 |
| 20260503055035 | 31 | 0 | 0.0 | 6.0 | 0.00 | 0.00 | 0.00 | 81 | 1016.6 |
| 20260503054547 | 31 | 265 | 3.0 | 6.0 | 0.00 | 0.00 | 0.00 | 80 | 1016.6 |
| 20260503054035 | 32 | 284 | 2.0 | 4.0 | 0.00 | 0.00 | 0.00 | 80 | 1016.6 |
| 20260503053535 | 32 | 276 | 2.0 | 4.0 | 0.00 | 0.00 | 0.00 | 80 | 1016.7 |
| 20260503053045 | 32 | 281 | 2.0 | 4.0 | 0.00 | 0.00 | 0.00 | 79 | 1016.8 |
| 20260503052535 | 32 | 276 | 3.0 | 4.0 | 0.00 | 0.00 | 0.00 | 79 | 1016.8 |
| 20260503052034 | 32 | 281 | 2.0 | 6.0 | 0.00 | 0.00 | 0.00 | 79 | 1016.7 |
| 20260503051541 | 32 | 266 | 2.0 | 6.0 | 0.00 | 0.00 | 0.00 | 78 | 1016.7 |
| 20260503051034 | 32 | 287 | 2.0 | 4.0 | 0.00 | 0.00 | 0.00 | 78 | 1016.7 |
| 20260503050537 | 32 | 255 | 1.0 | 4.0 | 0.00 | 0.00 | 0.00 | 78 | 1016.6 |
| 20260503050039 | 32 | 287 | 1.0 | 3.0 | 0.00 | 0.00 | 0.00 | 78 | 1016.7 |
| 20260503045537 | 32 | 275 | 1.0 | 4.0 | 0.00 | 0.00 | 0.00 | 78 | 1016.6 |
| 20260503045035 | 32 | 289 | 1.0 | 4.0 | 0.00 | 0.00 | 0.00 | 78 | 1016.7 |
| 20260503044545 | 32 | 265 | 2.0 | 4.0 | 0.00 | 0.00 | 0.00 | 77 | 1016.7 |
| 20260503044035 | 32 | 259 | 2.0 | 4.0 | 0.00 | 0.00 | 0.00 | 78 | 1016.6 |
| 20260503043536 | 32 | 257 | 1.0 | 4.0 | 0.00 | 0.00 | 0.00 | 78 | 1016.6 |
| 20260503043037 | 32 | 249 | 1.0 | 5.0 | 0.00 | 0.00 | 0.00 | 78 | 1016.6 |
| 20260503042536 | 32 | 46 | 2.0 | 5.0 | 0.00 | 0.00 | 0.00 | 78 | 1016.6 |
| 20260503042034 | 32 | 207 | 1.0 | 5.0 | 0.00 | 0.00 | 0.00 | 78 | 1016.6 |
| 20260503041542 | 32 | 273 | 1.0 | 3.0 | 0.00 | 0.00 | 0.00 | 78 | 1016.6 |
| 20260503041035 | 32 | 304 | 1.0 | 3.0 | 0.00 | 0.00 | 0.00 | 78 | 1016.6 |
| 20260503040535 | 32 | 308 | 1.0 | 4.0 | 0.00 | 0.00 | 0.00 | 78 | 1016.6 |
| 20260503040040 | 32 | 332 | 1.0 | 4.0 | 0.00 | 0.00 | 0.00 | 77 | 1016.4 |
| 20260503035535 | 32 | 219 | 1.0 | 7.0 | 0.00 | 0.00 | 0.00 | 77 | 1016.3 |
| 20260503035036 | 32 | 297 | 1.0 | 7.0 | 0.00 | 0.00 | 0.00 | 77 | 1016.3 |
| 20260503034549 | 32 | 267 | 3.0 | 7.0 | 0.00 | 0.00 | 0.00 | 78 | 1016.4 |
| 20260503034036 | 32 | 267 | 2.0 | 4.0 | 0.00 | 0.00 | 0.00 | 79 | 1016.4 |
| 20260503033534 | 32 | 304 | 2.0 | 6.0 | 0.00 | 0.00 | 0.00 | 79 | 1016.4 |
| 20260503033056 | 32 | 263 | 2.0 | 6.0 | 0.00 | 0.00 | 0.00 | 79 | 1016.4 |
| 20260503032535 | 32 | 304 | 1.0 | 6.0 | 0.00 | 0.00 | 0.00 | 79 | 1016.5 |
| 20260503032036 | 32 | 32 | 2.0 | 4.0 | 0.00 | 0.00 | 0.00 | 78 | 1016.5 |
| 20260503031546 | 32 | 0 | 0.0 | 4.0 | 0.00 | 0.00 | 0.00 | 78 | 1016.4 |
| 20260503031034 | 33 | 0 | 1.0 | 7.0 | 0.00 | 0.00 | 0.00 | 78 | 1016.5 |
| 20260503030535 | 33 | 271 | 2.0 | 10.0 | 0.00 | 0.00 | 0.00 | 78 | 1016.4 |
| 20260503030046 | 33 | 180 | 1.0 | 10.0 | 0.00 | 0.00 | 0.00 | 78 | 1016.2 |
| 20260503025535 | 33 | 205 | 1.0 | 5.0 | 0.00 | 0.00 | 0.00 | 78 | 1016.4 |
| 20260503025035 | 33 | 116 | 2.0 | 5.0 | 0.00 | 0.00 | 0.00 | 77 | 1016.4 |
| 20260503024548 | 33 | 290 | 1.0 | 5.0 | 0.00 | 0.00 | 0.00 | 77 | 1016.4 |
| 20260503024035 | 33 | 268 | 2.0 | 5.0 | 0.00 | 0.00 | 0.00 | 77 | 1016.2 |
| 20260503023534 | 33 | 321 | 1.0 | 3.0 | 0.00 | 0.00 | 0.00 | 77 | 1016.2 |
| 20260503023059 | 33 | 296 | 1.0 | 10.0 | 0.00 | 0.00 | 0.00 | 76 | 1016.2 |
| 20260503022534 | 33 | 273 | 1.0 | 10.0 | 0.00 | 0.00 | 0.00 | 76 | 1016.2 |
| 20260503022035 | 33 | 260 | 1.0 | 9.0 | 0.00 | 0.00 | 0.00 | 76 | 1016.2 |
| 20260503021551 | 33 | 244 | 3.0 | 9.0 | 0.00 | 0.00 | 0.00 | 76 | 1016.2 |
| 20260503021034 | 33 | 250 | 2.0 | 9.0 | 0.00 | 0.00 | 0.00 | 75 | 1016.1 |
| 20260503020534 | 33 | 332 | 1.0 | 5.0 | 0.00 | 0.00 | 0.00 | 76 | 1016.1 |
| 20260503020046 | 33 | 268 | 1.0 | 5.0 | 0.00 | 0.00 | 0.00 | 75 | 1016.1 |
| 20260503015534 | 33 | 19 | 2.0 | 4.0 | 0.00 | 0.00 | 0.00 | 75 | 1016.0 |
| 20260503015035 | 33 | 304 | 1.0 | 5.0 | 0.00 | 0.00 | 0.00 | 74 | 1015.9 |
| 20260503014543 | 34 | 217 | 1.0 | 5.0 | 0.00 | 0.00 | 0.00 | 74 | 1015.9 |
| 20260503014035 | 34 | 268 | 2.0 | 5.0 | 0.00 | 0.00 | 0.00 | 74 | 1016.0 |
| 20260503013535 | 34 | 263 | 1.0 | 9.0 | 0.00 | 0.00 | 0.00 | 73 | 1015.8 |
| 20260503013058 | 34 | 311 | 1.0 | 9.0 | 0.00 | 0.00 | 0.00 | 74 | 1015.7 |
| 20260503012535 | 34 | 148 | 2.0 | 9.0 | 0.00 | 0.00 | 0.00 | 73 | 1015.6 |
| 20260503012035 | 34 | 294 | 1.0 | 4.0 | 0.00 | 0.00 | 0.00 | 72 | 1015.6 |
| 20260503011600 | 34 | 211 | 2.0 | 6.0 | 0.00 | 0.00 | 0.00 | 72 | 1015.7 |
| 20260503011036 | 34 | 269 | 1.0 | 6.0 | 0.00 | 0.00 | 0.00 | 71 | 1015.6 |
| 20260503010534 | 34 | 0 | 2.0 | 5.0 | 0.00 | 0.00 | 0.00 | 71 | 1015.6 |
| 20260503010050 | 34 | 39 | 2.0 | 8.0 | 0.00 | 0.00 | 0.00 | 70 | 1015.5 |
| 20260503005537 | 35 | 0 | 1.0 | 8.0 | 0.00 | 0.00 | 0.00 | 70 | 1015.5 |
| 20260503005035 | 35 | 58 | 2.0 | 8.0 | 0.00 | 0.00 | 0.00 | 70 | 1015.5 |
| 20260503004546 | 35 | 173 | 2.0 | 6.0 | 0.00 | 0.00 | 0.00 | 70 | 1015.4 |
| 20260503004035 | 35 | 189 | 1.0 | 6.0 | 0.00 | 0.00 | 0.00 | 69 | 1015.6 |
| 20260503003535 | 35 | 248 | 2.0 | 7.0 | 0.00 | 0.00 | 0.00 | 69 | 1015.4 |
| 20260503003105 | 35 | 307 | 3.0 | 9.0 | 0.00 | 0.00 | 0.00 | 68 | 1015.4 |
| 20260503002535 | 35 | 311 | 3.0 | 6.0 | 0.00 | 0.00 | 0.00 | 67 | 1015.3 |
| 20260503002035 | 35 | 330 | 2.0 | 7.0 | 0.00 | 0.00 | 0.00 | 67 | 1015.3 |
| 20260503001538 | 36 | 283 | 2.0 | 7.0 | 0.00 | 0.00 | 0.00 | 66 | 1015.2 |
| 20260503001036 | 36 | 11 | 2.0 | 8.0 | 0.00 | 0.00 | 0.00 | 66 | 1015.2 |
| 20260503000536 | 36 | 346 | 3.0 | 10.0 | 0.00 | 0.00 | 0.00 | 65 | 1015.1 |
| 20260503000100 | 36 | 234 | 2.0 | 10.0 | 0.00 | 0.00 | 0.00 | 65 | 1015.1 |
| 20260502235536 | 37 | 248 | 2.0 | 7.0 | 0.00 | 0.00 | 0.00 | 64 | 1015.1 |
| 20260502235036 | 37 | 115 | 2.0 | 6.0 | 0.00 | 0.00 | 0.00 | 63 | 1014.9 |
| 20260502234545 | 37 | 279 | 1.0 | 9.0 | 0.00 | 0.00 | 0.00 | 63 | 1014.9 |
| 20260502234036 | 38 | 209 | 1.0 | 9.0 | 0.00 | 0.00 | 0.00 | 63 | 1014.7 |
| 20260502233536 | 38 | 51 | 2.0 | 6.0 | 0.00 | 0.00 | 0.00 | 61 | 1014.8 |
| 20260502233047 | 38 | 288 | 2.0 | 7.0 | 0.00 | 0.00 | 0.00 | 61 | 1014.8 |
| 20260502232536 | 38 | 248 | 1.0 | 8.0 | 0.00 | 0.00 | 0.00 | 60 | 1014.6 |
| 20260502232036 | 38 | 256 | 3.0 | 8.0 | 0.00 | 0.00 | 0.00 | 60 | 1014.8 |
| 20260502231545 | 38 | 352 | 2.0 | 8.0 | 0.00 | 0.00 | 0.00 | 60 | 1014.9 |
| 20260502231037 | 38 | 277 | 2.0 | 8.0 | 0.00 | 0.00 | 0.00 | 59 | 1014.5 |
| 20260502230537 | 38 | 264 | 2.0 | 6.0 | 0.00 | 0.00 | 0.00 | 58 | 1014.5 |
| 20260502230052 | 39 | 0 | 1.0 | 7.0 | 0.00 | 0.00 | 0.00 | 59 | 1014.4 |
| 20260502225536 | 39 | 338 | 2.0 | 7.0 | 0.00 | 0.00 | 0.00 | 57 | 1014.5 |
| 20260502225037 | 39 | 300 | 3.0 | 10.0 | 0.00 | 0.00 | 0.00 | 59 | 1014.5 |
| 20260502224550 | 39 | 334 | 3.0 | 10.0 | 0.00 | 0.00 | 0.00 | 60 | 1014.5 |
| 20260502224036 | 39 | 325 | 4.0 | 11.0 | 0.00 | 0.00 | 0.00 | 60 | 1014.6 |
| 20260502223536 | 39 | 313 | 5.0 | 11.0 | 0.00 | 0.00 | 0.00 | 60 | 1014.5 |
| 20260502223046 | 39 | 286 | 3.0 | 10.0 | 0.00 | 0.00 | 0.00 | 58 | 1014.5 |
| 20260502222536 | 39 | 266 | 4.0 | 9.0 | 0.00 | 0.00 | 0.00 | 57 | 1014.5 |
| 20260502222037 | 40 | 337 | 5.0 | 11.0 | 0.00 | 0.00 | 0.00 | 57 | 1014.4 |
| 20260502221541 | 40 | 250 | 4.0 | 11.0 | 0.00 | 0.00 | 0.00 | 56 | 1014.3 |
| 20260502221037 | 40 | 279 | 3.0 | 9.0 | 0.00 | 0.00 | 0.00 | 58 | 1014.5 |
| 20260502220537 | 41 | 274 | 5.0 | 9.0 | 0.00 | 0.00 | 0.00 | 56 | 1014.5 |
| 20260502220049 | 40 | 279 | 5.0 | 10.0 | 0.00 | 0.00 | 0.00 | 56 | 1014.2 |
| 20260502215537 | 41 | 281 | 6.0 | 10.0 | 0.00 | 0.00 | 0.00 | 54 | 1014.2 |
| 20260502215037 | 42 | 265 | 5.0 | 10.0 | 0.00 | 0.00 | 0.00 | 56 | 1014.2 |
| 20260502214543 | 42 | 283 | 4.0 | 9.0 | 0.00 | 0.00 | 0.00 | 58 | 1014.2 |
| 20260502214037 | 42 | 290 | 4.0 | 9.0 | 0.00 | 0.00 | 0.00 | 56 | 1014.0 |
| 20260502213537 | 43 | 267 | 6.0 | 9.0 | 0.00 | 0.00 | 0.00 | 57 | 1014.0 |
| 20260502213046 | 42 | 227 | 3.0 | 7.0 | 0.00 | 0.00 | 0.00 | 56 | 1013.9 |
| 20260502212537 | 43 | 244 | 2.0 | 6.0 | 0.00 | 0.00 | 0.00 | 58 | 1014.0 |
| 20260502212036 | 43 | 292 | 2.0 | 6.0 | 0.00 | 0.00 | 0.00 | 55 | 1013.9 |
| 20260502211550 | 44 | 279 | 2.0 | 7.0 | 0.00 | 0.00 | 0.00 | 54 | 1013.8 |
| 20260502211036 | 44 | 262 | 3.0 | 7.0 | 0.00 | 0.00 | 0.00 | 58 | 1013.8 |
| 20260502210534 | 44 | 338 | 2.0 | 7.0 | 0.00 | 0.00 | 0.00 | 56 | 1013.8 |
| 20260502210040 | 44 | 257 | 3.0 | 7.0 | 0.00 | 0.00 | 0.00 | 55 | 1013.8 |
| 20260502205534 | 44 | 291 | 2.0 | 7.0 | 0.00 | 0.00 | 0.00 | 56 | 1013.7 |
| 20260502205035 | 44 | 259 | 2.0 | 7.0 | 0.00 | 0.00 | 0.00 | 56 | 1013.8 |
| 20260502204546 | 44 | 282 | 2.0 | 7.0 | 0.00 | 0.00 | 0.00 | 56 | 1013.8 |
| 20260502204035 | 44 | 282 | 1.0 | 9.0 | 0.00 | 0.00 | 0.00 | 57 | 1013.8 |
| 20260502203535 | 45 | 245 | 2.0 | 9.0 | 0.00 | 0.00 | 0.00 | 54 | 1013.8 |
| 20260502203038 | 46 | 211 | 1.0 | 8.0 | 0.00 | 0.00 | 0.00 | 59 | 1013.8 |
| 20260502202534 | 45 | 137 | 1.0 | 4.0 | 0.00 | 0.00 | 0.00 | 61 | 1013.5 |
| 20260502202034 | 45 | 210 | 1.0 | 5.0 | 0.00 | 0.00 | 0.00 | 58 | 1013.7 |
| 20260502201545 | 45 | 0 | 1.0 | 5.0 | 0.00 | 0.00 | 0.00 | 57 | 1013.8 |